Regional Weather Roundup
Issued by NWS

Home | Current Version | Previous Version | Text Only | Print | Product List | Glossary On
Versions: 1 2 3 4 5 6 7 8 9 10 11 12 13 14 15 16 17 18 19 20 21 22 23 24 25 26 27 28 29 30 31 32 33 34 35 36 37 38 39 40 41 42 43 44 45 46 47 48 49 50
000
ASUS43 KMKX 171621
RWRWI

WISCONSIN REGIONAL WEATHER ROUNDUP
NATIONAL WEATHER SERVICE MILWAUKEE/SULLIVAN WI
1000 AM CST WED DEC 17 2014

NOTE: "FAIR" INDICATES FEW OR NO CLOUDS BELOW 12,000 FEET WITH NO
SIGNIFICANT WEATHER AND/OR OBSTRUCTIONS TO VISIBILITY.

WIZ001-002-006>008-014>016-023>028-171700-
NORTHWEST WISCONSIN

CITY           SKY/WX    TMP DP  RH WIND       PRES   REMARKS
SUPERIOR ARPT  MOSUNNY   17  10  74 N8        30.29R WCI   6
ASHLAND        CLOUDY    18  14  84 W7        30.25R WCI   9
HAYWARD        LGT SNOW  14   8  77 VRB3      30.24R
SIREN          SUNNY     15   8  76 N5        30.29R WCI   7
CUMBERLAND     FLURRIES  14   9  79 NW8       30.25R WCI   3
RICE LAKE      CLOUDY    15  10  77 N7        30.28R WCI   6
CHETEK         CLOUDY    16   9  74 NW7       30.27R WCI   6
LADYSMITH      FLURRIES  16  10  77 NW6       30.26R WCI   7
EAU CLAIRE     CLOUDY    18  12  77 W8        30.27R WCI   8
MENOMONIE      FLURRIES  18  12  79 W9        30.28R WCI   6
NEW RICHMOND   FLURRIES  13  10  89 W7        30.30R WCI   3
OSCEOLA        MOSUNNY   15  10  83 W6        30.33S WCI   6
$$

WIZ003>005-009-010-017-018-171700-
NORTH CENTRAL WISCONSIN

CITY           SKY/WX    TMP DP  RH WIND       PRES   REMARKS
MANITOWISH WTR LGT SNOW  15  12  87 NW12      30.15R WCI   2
ARBOR VITAE    LGT SNOW  18  13  82 NW8       30.15R WCI   8
WOODRUFF       LGT SNOW  18  13  82 NW8       30.15R WCI   8
RHINELANDER    LGT SNOW  16  10  77 W9        30.15R WCI   4
EAGLE RIVER    FLURRIES  17  13  84 W12       30.13R WCI   5
LAND O LAKES   LGT SNOW  19  16  86 W6        30.12R WCI  11
PHILLIPS       FLURRIES  15   9  77 NW5       30.19R WCI   7
TOMAHAWK       CLOUDY    17  11  77 NW9       30.18R WCI   5
MEDFORD        LGT SNOW  15  10  78 N7        30.20R WCI   5
MERRILL        FLURRIES  17  11  75 N9        30.19R WCI   6
$$

WIZ029-030-035-036-043>047-171700-
CENTRAL WISCONSIN

CITY           SKY/WX    TMP DP  RH WIND       PRES   REMARKS
WAUSAU         CLOUDY    18   9  68 NW10      30.19R WCI   6
MOSINEE        FLURRIES  19  16  86 NW12      30.21R WCI   7
MARSHFIELD     CLOUDY    20  13  74 NW12      30.20R WCI   8
STEVENS POINT  CLOUDY    19  11  69 NW10G16   30.21R WCI   8
WAUPACA        CLOUDY    25  15  65 W8G17     30.21S WCI  16
WAUTOMA        MIX PCPN  23  16  75 NW10      30.23R WCI  12
WISC RAPIDS    CLOUDY    21  13  71 NW10      30.23R WCI  10
CAMP DOUGLAS   CLOUDY    19  18  93 W12       30.25R WCI   7
$$

WIZ011>013-019>022-031-037>040-048>050-171700-
NORTHEAST WISCONSIN

CITY           SKY/WX    TMP DP  RH WIND       PRES   REMARKS
ANTIGO         CLOUDY    17  12  80 W14       30.15R WCI   3
SHAWANO        PTSUNNY   24  15  68 NW8       30.20R WCI  15
OCONTO         CLOUDY    23  16  74 W16       30.16R WCI  10
STURGEON BAY   CLOUDY    23  14  68 W16G24    30.15R WCI  10
GREEN BAY      CLOUDY    24  15  68 W18G24    30.18R WCI  10
MANITOWOC      FLURRIES  26  17  68 NW17      30.17S WCI  13
APPLETON       PTSUNNY   23  12  63 NW15      30.20R WCI  10
CLINTONVILLE   CLOUDY    23  14  68 NW14      30.20R WCI  11
OSHKOSH        CLOUDY    24  14  65 NW14      30.20R WCI  12
$$

WIZ032>034-041-042-053>061-171700-
SOUTHWEST WISCONSIN

CITY           SKY/WX    TMP DP  RH WIND       PRES   REMARKS
LA CROSSE      CLOUDY    21  12  68 NW10      30.29S WCI  10
SPARTA         CLOUDY    21  13  71 W8        30.28R WCI  11
VIROQUA        CLOUDY    19  15  88 NW9       30.24R WCI   7
BOSCOBEL       CLOUDY    22  14  71 W7        30.30R WCI  13
PRAIRIE DU CHI FLURRIES  20  12  70 W13       30.31R WCI   7
PLATTEVILLE    CLOUDY    22  17  83 W10       30.28R WCI  11
$$

WIZ056-057-062-063-064-067-068-171700-
SOUTH CENTRAL WISCONSIN

CITY           SKY/WX    TMP DP  RH WIND       PRES   REMARKS
REEDSBURG      FLURRIES  22  16  78 NW8       30.24S WCI  12
BARABOO/DELLS  CLOUDY    22  15  75 NW8       30.23S WCI  12
LONE ROCK      CLOUDY    26  14  60 W13       30.27R WCI  15
MINERAL POINT  CLOUDY    23  18  80 W10       30.24R WCI  12
MADISON        FLURRIES  23  15  71 W8        30.24R WCI  14
MIDDLETON      CLOUDY    25  16  69 NW10      30.24R WCI  15
WATERTOWN      CLOUDY    23  17  78 W10       30.23R WCI  12
MONROE         CLOUDY    23  19  86 NW8       30.24R WCI  14
JANESVILLE     CLOUDY    27  18  69 W13       30.24R WCI  16
$$

WIZ051-052-058>065-066-070>072-171700-
SOUTHEAST WISCONSIN

CITY           SKY/WX    TMP DP  RH WIND       PRES   REMARKS
MILWAUKEE      CLOUDY    26  16  65 W15       30.21R WCI  14
WAUKESHA       CLOUDY    21  16  79 W14       30.21R WCI   8
MILWAUKEE/TIMM CLOUDY    25  16  68 W17       30.21R WCI  11
RACINE         CLOUDY    26  17  68 NW12      30.23R WCI  16
BURLINGTON     CLOUDY    23  17  75 NW15      30.22R WCI  10
KENOSHA        CLOUDY    26  18  71 W16       30.22R WCI  14
FOND DU LAC    CLOUDY    24  15  68 NW12      30.20R WCI  13
SHEBOYGAN      CLOUDY    24  16  71 NW13G20   30.18R WCI  12
WEST BEND      CLOUDY    25  18  74 NW14      30.19R WCI  13
JUNEAU         CLOUDY    22  16  76 W9G17     30.22R WCI  12
$$

LSZ147-162-171700-
LAKE SUPERIOR

STATION/POSITION TIME  TEMP    WIND        PRES    WAVE
                       AIR SEA DIR/SP/G            HT/PER
                 (UTC) (F)     (DEG/KT/KT) (MB)    (FT/S)
DEVILS ISLAND    1600   23     360/  9/ 11 1025.5R
PORT WING        1500   19     350/  9/ 11 1024.7R
SAXON HARBOR     1500   19     240/  6/ 10 1023.4R
$$

LMZ867-665-643>646-171700-
LAKE MICHIGAN

STATION/POSITION TIME  TEMP    WIND        PRES    WAVE
                       AIR SEA DIR/SP/G            HT/PER
                 (UTC) (F)     (DEG/KT/KT) (MB)    (FT/S)
CHAMBERS ISLAND  1500   24     250/ 10/ 19 1019.6R
NORTHPORT PIER   1500   26     290/ 13/ 21 1018.6R
SISTER BAY       1413          320/ 24/ 28   N/A
ALGOMA LAKESHORE 1514          320/ 11/ 19   N/A
KEWAUNEE LAKESHO 1600   25     290/ 15/ 21 1020.1R
SHEBOYGAN LAKESH 1600   25 35  300/ 12/ 16 1023.2R
PORT WASHINGTON  1540   26     300/  9/ 18 1023.4R
MILWAUKEE LAKESH 1600   26     300/ 11/ 16   N/A
KENOSHA   LAKESH 1600   26     290/ 12/ 18 1023.0R
$$

TC  - TEMPERATURE IN CELSIUS
VSB - VISIBILITY IN STATUTE MILES
WCI - WIND CHILL INDEX
HX  - HEAT INDEX




USA.gov is the U.S. government's official web portal to all federal, state and local government web resources and services.